FW2026 Weather Reports


time (UTC)temp
C
wind
direction
speed
KPH
gust
KPH
rain 1hr
cm
rain 24hr
cm
rain mn
cm
humidity
%
barometer
mb
20260506203626 8 341 6.4 9.7 0.00 1.30 1.24 83 1011.2
20260506203123 8 0 6.4 11.3 0.00 1.30 1.24 83 1011.2
20260506202623 8 354 6.4 11.3 0.00 1.32 1.24 83 1011.2
20260506202123 8 302 6.4 9.7 0.00 1.32 1.24 83 1011.2
20260506201624 8 334 4.8 8.0 0.00 1.32 1.24 83 1011.1
20260506201120 8 357 4.8 8.0 0.00 1.32 1.24 83 1011.2
20260506200618 8 338 4.8 8.0 0.00 1.32 1.24 83 1011.2
20260506200353 8 353 3.2 6.4 0.00 1.32 1.24 83 1011.2
20260506195619 8 347 1.6 6.4 0.00 1.35 1.24 83 1011.0
20260506195121 8 334 3.2 6.4 0.00 1.35 1.24 83 1011.0
20260506194848 8 354 4.8 6.4 0.00 1.35 1.24 83 1011.0
20260506194353 8 350 4.8 6.4 0.00 1.35 1.24 83 1010.9
20260506193616 8 345 3.2 6.4 0.00 1.35 1.24 83 1010.8
20260506193113 8 353 3.2 6.4 0.00 1.35 1.24 83 1010.8
20260506192613 8 355 3.2 9.7 0.00 1.35 1.24 83 1010.8
20260506192118 8 20 6.4 9.7 0.00 1.35 1.24 83 1010.7
20260506191609 8 4 6.4 9.7 0.00 1.35 1.24 83 1010.6
20260506191110 8 0 6.4 11.3 0.00 1.35 1.24 83 1010.7
20260506190841 8 357 8.0 11.3 0.00 1.35 1.24 83 1010.6
20260506190112 9 341 6.4 9.7 0.00 1.35 1.24 83 1010.4
20260506185604 9 336 3.2 8.0 0.00 1.35 1.24 83 1010.5
20260506185339 8 4 3.2 8.0 0.00 1.35 1.24 82 1010.5
20260506184841 8 336 1.6 6.4 0.00 1.35 1.24 83 1010.4
20260506184103 8 13 3.2 6.4 0.00 1.35 1.24 83 1010.4
20260506183830 8 358 1.6 6.4 0.00 1.35 1.24 82 1010.3
20260506183057 8 24 1.6 4.8 0.00 1.35 1.24 82 1010.2
20260506182555 8 7 3.2 8.0 0.00 1.35 1.24 82 1010.3
20260506182053 8 21 4.8 11.3 0.00 1.35 1.24 82 1010.2
20260506181825 8 30 8.0 14.5 0.00 1.35 1.24 82 1010.1
20260506181054 9 18 8.0 14.5 0.00 1.35 1.24 82 1010.0
20260506180554 9 319 4.8 9.7 0.00 1.35 1.24 82 1010.0
20260506180058 9 326 4.8 9.7 0.00 1.35 1.24 81 1010.0
20260506175554 9 351 6.4 16.1 0.00 1.35 1.24 81 1009.9
20260506175048 9 330 8.0 16.1 0.00 1.35 1.24 81 1009.9
20260506174548 9 11 9.7 14.5 0.00 1.35 1.24 81 1009.9
20260506174047 9 0 8.0 14.5 0.00 1.35 1.24 81 1009.7
20260506173546 9 10 8.0 17.7 0.00 1.35 1.24 81 1009.7
20260506173047 9 0 9.7 17.7 0.00 1.35 1.24 81 1009.7
20260506172548 9 23 9.7 17.7 0.00 1.35 1.24 81 1009.5
20260506172043 9 354 6.4 19.3 0.00 1.35 1.24 81 1009.5
20260506171544 9 41 8.0 16.1 0.00 1.35 1.24 81 1009.4
20260506171042 9 355 3.2 9.7 0.00 1.35 1.24 81 1009.4
20260506170542 9 343 4.8 11.3 0.00 1.35 1.24 81 1009.3
20260506170043 9 357 6.4 11.3 0.00 1.35 1.24 81 1009.4
20260506165540 9 1 4.8 11.3 0.00 1.35 1.24 81 1009.5
20260506165041 9 47 6.4 16.1 0.00 1.35 1.24 81 1009.4
20260506164539 9 11 9.7 16.1 0.00 1.35 1.24 81 1009.3
20260506164039 9 1 8.0 16.1 0.00 1.35 1.24 81 1009.3
20260506163537 9 347 8.0 16.1 0.00 1.35 1.24 81 1009.2
20260506163036 9 27 9.7 16.1 0.00 1.35 1.24 81 1009.3
20260506162536 9 14 8.0 19.3 0.00 1.35 1.24 81 1009.2
20260506162043 9 341 8.0 19.3 0.00 1.35 1.24 81 1009.2
20260506161536 9 18 8.0 17.7 0.00 1.35 1.24 81 1009.3
20260506161313 9 354 9.7 17.7 0.00 1.35 1.24 82 1009.2
20260506160536 9 338 4.8 9.7 0.00 1.35 1.24 82 1009.2
20260506160043 9 353 4.8 14.5 0.00 1.35 1.24 82 1009.2
20260506155533 9 4 6.4 16.1 0.00 1.35 1.24 82 1009.2
20260506155034 9 48 6.4 17.7 0.00 1.35 1.24 82 1009.2
20260506154533 9 353 9.7 17.7 0.00 1.35 1.24 82 1009.1
20260506154032 9 32 8.0 17.7 0.00 1.35 1.24 83 1009.2
20260506153532 9 23 11.3 17.7 0.00 1.35 1.24 83 1009.0
20260506153030 9 4 4.8 16.1 0.00 1.35 1.24 83 1009.1
20260506152530 9 355 9.7 16.1 0.00 1.35 1.24 83 1009.1
20260506152300 9 32 9.7 16.1 0.00 1.35 1.24 83 1009.2
20260506151523 9 0 6.4 16.1 0.00 1.35 1.24 83 1009.1
20260506151023 9 358 8.0 16.1 0.00 1.35 1.24 83 1009.0
20260506150523 9 357 9.7 16.1 0.00 1.35 1.24 83 1009.0
20260506150304 9 324 9.7 14.5 0.00 1.35 1.24 83 1009.0
20260506145522 9 323 9.7 17.7 0.00 1.35 1.24 83 1009.1
20260506145019 9 330 9.7 17.7 0.00 1.35 1.24 83 1009.0
20260506144521 9 358 6.4 14.5 0.00 1.35 1.24 83 1008.9
20260506144020 9 344 8.0 16.1 0.00 1.35 1.24 83 1008.9
20260506143521 9 343 9.7 17.7 0.00 1.35 1.24 83 1008.9
20260506143019 9 329 9.7 19.3 0.00 1.35 1.24 83 1008.9
20260506142752 9 336 9.7 20.9 0.00 1.35 1.24 83 1009.0
20260506142019 9 0 9.7 20.9 0.00 1.35 1.24 84 1008.9
20260506141518 9 351 9.7 17.7 0.00 1.35 1.24 84 1008.8
20260506141018 9 350 11.3 17.7 0.00 1.35 1.24 84 1008.8
20260506140519 9 336 6.4 14.5 0.00 1.35 1.24 85 1008.8
20260506140021 9 3 8.0 16.1 0.00 1.35 1.24 85 1008.9
20260506135019 9 1 6.4 9.7 0.00 1.35 1.24 85 1008.9
20260506134518 9 6 8.0 14.5 0.00 1.35 1.24 85 1008.9
20260506134017 9 351 8.0 16.1 0.00 1.35 1.24 85 1008.8
20260506133517 9 345 8.0 16.1 0.00 1.35 1.24 85 1008.8
20260506133013 9 296 6.4 16.1 0.00 1.35 1.24 86 1008.8
20260506132747 9 353 9.7 17.7 0.03 1.35 1.24 86 1008.7
20260506132019 9 0 8.0 19.3 0.03 1.35 1.24 86 1008.8
20260506131515 9 317 11.3 19.3 0.03 1.35 1.24 86 1008.8
20260506131015 9 350 11.3 17.7 0.03 1.35 1.24 86 1008.8
20260506130514 9 344 9.7 16.1 0.03 1.35 1.24 86 1008.6
20260506130016 9 344 8.0 16.1 0.03 1.32 1.24 86 1008.6
20260506125512 9 320 8.0 19.3 0.03 1.32 1.24 86 1008.6
20260506125012 8 0 8.0 22.5 0.03 1.32 1.24 87 1008.6
20260506124515 8 357 14.5 22.5 0.03 1.32 1.24 86 1008.5
20260506124015 8 330 11.3 16.1 0.03 1.32 1.24 86 1008.6
20260506123514 8 0 9.7 16.1 0.03 1.32 1.24 86 1008.6
20260506123014 8 0 12.9 17.7 0.03 1.32 1.24 86 1008.6
20260506122506 8 20 8.0 17.7 0.00 1.32 1.22 86 1008.4
20260506122005 9 358 6.4 16.1 0.03 1.32 1.22 87 1008.4
20260506121505 8 343 9.7 19.3 0.03 1.32 1.22 87 1008.4
20260506121006 9 14 6.4 24.1 0.03 1.32 1.22 87 1008.3
20260506120517 8 0 12.9 24.1 0.03 1.32 1.22 87 1008.3
20260506120007 9 331 9.7 19.3 0.03 1.30 1.22 87 1008.3
20260506115504 8 0 11.3 22.5 0.03 1.30 1.22 87 1008.2
20260506115006 9 340 14.5 22.5 0.05 1.30 1.22 87 1008.2
20260506114502 8 357 11.3 24.1 0.05 1.30 1.22 87 1008.3
20260506114001 8 353 14.5 24.1 0.05 1.30 1.22 87 1008.2
20260506113502 8 0 12.9 22.5 0.05 1.30 1.22 88 1008.1
20260506112959 8 341 14.5 22.5 0.05 1.30 1.22 88 1008.1
20260506112459 8 0 11.3 22.5 0.05 1.30 1.22 88 1008.0
20260506112002 8 4 11.3 19.3 0.05 1.30 1.19 88 1008.1
20260506111459 8 14 11.3 19.3 0.05 1.30 1.19 88 1008.0
20260506110958 8 0 8.0 20.9 0.05 1.30 1.19 88 1008.0
20260506110459 8 345 12.9 20.9 0.05 1.30 1.19 88 1008.0
20260506105456 8 355 12.9 22.5 0.05 1.27 1.19 88 1008.0
20260506104955 8 345 14.5 22.5 0.05 1.27 1.17 88 1008.0
20260506104456 9 344 11.3 20.9 0.05 1.27 1.17 88 1007.9
20260506104229 9 348 11.3 20.9 0.05 1.27 1.17 88 1007.9
20260506103455 9 350 11.3 19.3 0.05 1.27 1.17 88 1007.8
20260506102953 9 329 9.7 17.7 0.05 1.27 1.17 88 1007.8
20260506102454 9 348 9.7 17.7 0.05 1.27 1.17 88 1007.8
20260506101953 9 0 9.7 16.1 0.05 1.27 1.17 88 1007.7
20260506101452 9 354 11.3 20.9 0.05 1.27 1.17 88 1007.7
20260506100950 9 327 11.3 20.9 0.05 1.27 1.17 88 1007.7
20260506100450 9 358 9.7 17.7 0.05 1.27 1.17 88 1007.7
20260506095950 10 353 9.7 16.1 0.05 1.19 1.17 88 1007.5
20260506095724 9 0 9.7 16.1 0.05 1.19 1.14 88 1007.5
20260506094950 9 330 8.0 14.5 0.05 1.19 1.14 88 1007.5
20260506094447 9 351 6.4 14.5 0.05 1.19 1.14 88 1007.4
20260506093946 9 337 9.7 14.5 0.05 1.19 1.14 88 1007.4
20260506093718 10 337 8.0 14.5 0.05 1.19 1.12 88 1007.4
20260506092944 10 357 9.7 14.5 0.05 1.19 1.12 88 1007.4
20260506092445 9 6 6.4 14.5 0.05 1.19 1.12 88 1007.4
20260506091944 9 344 9.7 17.7 0.05 1.19 1.12 88 1007.3
20260506091442 9 351 8.0 17.7 0.05 1.19 1.12 88 1007.3
20260506090942 9 331 8.0 14.5 0.05 1.19 1.12 88 1007.3
20260506090440 9 10 8.0 14.5 0.03 1.19 1.09 88 1007.2
20260506085941 9 355 9.7 16.1 0.05 1.17 1.09 88 1007.1
20260506085449 9 347 9.7 16.1 0.05 1.17 1.09 88 1007.1
20260506084714 9 353 8.0 11.3 0.05 1.17 1.09 88 1007.0
20260506083940 9 334 8.0 17.7 0.05 1.17 1.09 89 1007.0
20260506083440 9 0 9.7 17.7 0.05 1.17 1.09 88 1007.0
20260506082940 9 327 8.0 16.1 0.05 1.17 1.09 89 1006.9
20260506082709 9 353 11.3 16.1 0.05 1.17 1.09 88 1006.9
20260506081934 9 347 8.0 11.3 0.05 1.17 1.09 88 1006.9
20260506081708 9 344 8.0 14.5 0.05 1.17 1.09 89 1006.8
20260506080935 9 354 9.7 14.5 0.05 1.17 1.09 89 1006.8
20260506080434 9 24 9.7 14.5 0.05 1.17 1.07 89 1006.8
20260506073432 9 336 11.3 20.9 0.05 1.12 1.04 88 1006.7
20260506072934 9 0 14.5 20.9 0.05 1.12 1.04 89 1006.7
20260506072432 9 358 6.4 16.1 0.05 1.12 1.04 88 1006.6
20260506071933 9 0 9.7 19.3 0.05 1.12 1.02 88 1006.7
20260506070933 9 35 9.7 16.1 0.05 1.12 1.02 88 1006.7
20260506070431 9 0 8.0 17.7 0.05 1.12 1.02 89 1006.6
20260506061931 9 0 9.7 16.1 0.08 1.07 0.99 89 1006.4
20260506061430 9 347 9.7 17.7 0.10 1.07 0.99 89 1006.4
20260506061205 9 8 12.9 17.7 0.13 1.07 0.99 89 1006.4
20260506060431 9 0 9.7 16.1 0.10 1.07 0.97 89 1006.3
20260506051206 9 345 9.7 14.5 0.15 0.94 0.86 88 1006.2
20260506050431 9 330 8.0 14.5 0.18 0.94 0.86 88 1006.2
20260506044432 8 0 9.7 14.5 0.15 0.79 0.79 88 1006.2
20260506043931 9 0 8.0 11.3 0.15 0.79 0.79 88 1006.2
20260506043432 8 340 8.0 16.1 0.15 0.79 0.76 88 1006.2
20260506043210 8 0 9.7 17.7 0.15 0.79 0.76 88 1006.2
20260506042431 8 338 9.7 17.7 0.15 0.79 0.74 89 1006.2
20260506041931 8 0 6.4 9.7 0.15 0.79 0.71 89 1006.1
20260506041706 8 0 6.4 11.3 0.15 0.79 0.71 88 1006.2
20260506040932 8 0 8.0 11.3 0.15 0.79 0.71 88 1006.3
20260506040710 8 0 6.4 9.7 0.13 0.79 0.69 88 1006.3
20260506040201 8 344 8.0 11.3 0.15 0.64 0.69 88 1006.2
20260506035433 8 16 6.4 11.3 0.13 0.64 0.66 88 1006.2
20260506034933 8 350 6.4 11.3 0.15 0.64 0.66 88 1006.2
20260506034434 8 348 6.4 11.3 0.15 0.64 0.64 88 1006.4
20260506033931 8 27 6.4 11.3 0.15 0.64 0.64 88 1006.3
20260506033432 8 340 6.4 11.3 0.15 0.64 0.61 88 1006.4
20260506032931 8 357 8.0 14.5 0.15 0.64 0.61 88 1006.3
20260506032431 8 351 4.8 14.5 0.15 0.64 0.61 88 1006.4
20260506032203 8 344 6.4 11.3 0.15 0.64 0.58 88 1006.4
20260506031432 8 338 6.4 11.3 0.18 0.64 0.58 88 1006.4
20260506030931 8 337 6.4 14.5 0.18 0.64 0.56 88 1006.5
20260506030706 8 347 6.4 14.5 0.20 0.64 0.56 88 1006.6
20260506025932 8 0 6.4 11.3 0.23 0.43 0.53 88 1006.6
20260506025431 8 343 6.4 11.3 0.23 0.43 0.53 88 1006.7
20260506024932 8 355 8.0 11.3 0.23 0.43 0.51 88 1006.8
20260506024431 8 0 6.4 14.5 0.23 0.43 0.51 88 1006.7
20260506023930 8 0 9.7 14.5 0.23 0.43 0.51 88 1006.7
20260506023431 8 0 9.7 14.5 0.20 0.43 0.48 88 1006.7
20260506022931 8 0 9.7 14.5 0.20 0.43 0.46 88 1006.7
20260506022432 8 14 8.0 14.5 0.18 0.43 0.43 88 1006.7
20260506021931 8 353 8.0 17.7 0.15 0.43 0.43 88 1006.8
20260506021432 8 350 11.3 17.7 0.15 0.43 0.41 88 1006.7
20260506020931 8 10 11.3 17.7 0.15 0.43 0.38 88 1006.8
20260506020704 8 348 9.7 16.1 0.13 0.43 0.36 88 1006.8
20260506015931 9 357 9.7 16.1 0.08 0.33 0.33 88 1006.9
20260506015431 9 341 9.7 17.7 0.10 0.33 0.33 88 1006.9
20260506014931 9 337 9.7 17.7 0.08 0.33 0.30 88 1006.8
20260506014704 9 348 6.4 11.3 0.08 0.33 0.28 88 1007.0
20260506013933 9 0 6.4 14.5 0.08 0.33 0.28 88 1006.9
20260506013431 9 358 8.0 14.5 0.10 0.33 0.28 88 1006.9
20260506013205 9 348 6.4 9.7 0.08 0.33 0.25 88 1007.0
20260506012431 9 358 6.4 16.1 0.10 0.33 0.25 88 1007.0
20260506011931 9 11 8.0 16.1 0.10 0.33 0.25 88 1007.0
20260506011433 9 0 6.4 14.5 0.10 0.33 0.25 88 1007.0
20260506010930 9 20 9.7 14.5 0.10 0.33 0.23 88 1007.0
20260506010432 9 0 4.8 14.5 0.10 0.33 0.23 88 1007.1
20260506005932 9 21 6.4 14.5 0.10 0.23 0.23 88 1007.1
20260506005431 9 0 8.0 19.3 0.10 0.23 0.23 88 1007.1
20260506004933 9 0 9.7 19.3 0.10 0.23 0.23 88 1007.1
20260506004432 9 0 9.7 19.3 0.10 0.23 0.20 88 1007.2
20260506004204 9 351 11.3 19.3 0.10 0.23 0.20 88 1007.2
20260506003704 9 34 9.7 14.5 0.08 0.23 0.18 87 1007.3
20260506002930 9 0 6.4 16.1 0.10 0.23 0.18 88 1007.3
20260506002431 9 338 9.7 16.1 0.08 0.23 0.15 87 1007.3
20260506001931 9 350 8.0 16.1 0.10 0.23 0.15 87 1007.4
20260506001431 9 351 8.0 16.1 0.10 0.23 0.15 87 1007.4
20260506000930 9 347 8.0 16.1 0.08 0.23 0.15 88 1007.5
20260506000433 9 6 6.4 17.7 0.10 0.23 0.15 88 1007.5
20260505235931 9 0 9.7 17.7 0.10 0.15 0.15 87 1007.6
20260505235431 9 357 8.0 11.3 0.08 0.15 0.13 87 1007.6
20260505234929 9 0 4.8 14.5 0.08 0.15 0.13 87 1007.6
20260505234430 9 3 8.0 14.5 0.08 0.15 0.10 87 1007.7
20260505234204 9 0 6.4 14.5 0.08 0.15 0.10 87 1007.7
20260505233430 9 0 8.0 17.7 0.08 0.15 0.10 87 1007.8
20260505232931 9 0 8.0 17.7 0.05 0.15 0.08 87 1007.8
20260505232429 9 25 6.4 17.7 0.05 0.15 0.08 87 1007.8
20260505231928 9 0 8.0 17.7 0.05 0.15 0.05 87 1008.0
20260505231427 9 1 8.0 16.1 0.05 0.15 0.05 87 1007.8
20260505230926 10 0 9.7 16.1 0.05 0.15 0.05 87 1007.7
20260505230425 10 0 8.0 14.5 0.05 0.15 0.05 87 1007.7
20260505225924 10 0 8.0 19.3 0.05 0.10 0.05 87 1007.8
20260505225424 10 348 11.3 19.3 0.05 0.10 0.05 87 1007.9
20260505225155 10 0 9.7 17.7 0.05 0.10 0.05 87 1007.9
20260505224423 10 341 9.7 17.7 0.05 0.10 0.03 87 1007.9
20260505223923 10 23 6.4 24.1 0.05 0.10 0.03 87 1008.0
20260505223420 10 8 8.0 24.1 0.05 0.10 0.03 87 1008.0
20260505222922 10 38 11.3 24.1 0.05 0.10 0.03 87 1007.9
20260505222421 10 7 6.4 19.3 0.05 0.10 0.03 86 1008.0
20260505221921 10 20 11.3 19.3 0.05 0.10 0.03 86 1008.0
20260505221417 10 1 8.0 16.1 0.05 0.10 0.03 86 1008.0
20260505220918 10 0 8.0 16.1 0.05 0.10 0.00 86 1008.1
20260505220418 10 343 8.0 14.5 0.05 0.10 0.00 86 1008.0
20260505215918 10 24 6.4 17.7 0.05 0.05 0.10 86 1008.0
20260505215417 10 4 9.7 17.7 0.05 0.05 0.10 86 1008.0
20260505214920 10 345 6.4 17.7 0.05 0.05 0.08 86 1008.1
20260505214416 10 10 6.4 17.7 0.05 0.05 0.08 85 1008.1
20260505214208 10 18 9.7 16.1 0.05 0.05 0.08 85 1008.2
20260505213419 10 0 6.4 16.1 0.03 0.05 0.05 85 1008.2
20260505212918 10 354 8.0 11.3 0.03 0.05 0.05 85 1008.2
20260505212419 10 347 6.4 14.5 0.05 0.05 0.05 85 1008.2
20260505211915 10 18 6.4 17.7 0.05 0.05 0.05 85 1008.2
20260505211415 10 20 9.7 17.7 0.05 0.05 0.05 85 1008.3
20260505210916 10 0 6.4 19.3 0.03 0.05 0.05 85 1008.3
20260505210417 10 10 8.0 19.3 0.03 0.05 0.05 84 1008.3
20260505210148 10 11 9.7 19.3 0.05 0.03 0.05 84 1008.4
20260505205414 10 27 11.3 19.3 0.05 0.03 0.05 84 1008.4
20260505205147 10 20 9.7 16.1 0.05 0.03 0.05 84 1008.4
20260505204417 10 353 8.0 16.1 0.05 0.03 0.05 84 1008.4